Latest Coastal Weather Observations for Cape Grim

IDT60701

Issued at 7:02 am EST Monday 27 April 2015 (issued every 10 minutes, with the page automatically refreshed every 10 minutes)

About coastal observations | Map of coastal stations | Coastal observations for TAS | Marine services | Other Formats
Station Details ID: 091331 Name: CAPE GRIM Lat: -40.68 Lon: 144.69 Height: 86.0 m
Data from the previous 72 hours. | See also: Recent months at Cape Grim
Date/Time
EST
Temp

°C
Wind Pressure Rain
since 9am
mm
Weather Cloud Vis
km
Sea
Height
m
Swell
Dir
 
Speed
knots
Gust
knots
hPa Trend Height
m
Period
s
Dir
27/07:00am 11.3 SW 22 28 1019.5 - 1.2 - Partly cloudy - - - - -
27/06:30am 11.2 SW 20 27 1019.2 - 1.2 - Partly cloudy - - - - -
27/06:19am 11.2 SW 19 29 1019.1 - 1.2 - Partly cloudy - - - - -
27/06:00am 11.2 SW 21 27 1019.0 - 1.2 - Partly cloudy - - - - -
27/05:30am 11.4 SW 23 29 1018.9 - 1.2 - Partly cloudy - - - - -
27/05:00am 11.8 SW 22 27 1018.7 - 1.2 - Partly cloudy - - - - -
27/04:45am 11.2 SSW 17 27 1018.7 - 1.2 - Partly cloudy - - - - -
27/04:30am 11.4 SW 19 26 1018.6 - 1.2 - Partly cloudy - - - - -
27/04:00am 11.2 SW 22 29 1018.5 - 1.2 - Partly cloudy - - - - -
27/03:30am 11.3 SW 22 27 1018.3 - 1.2 - Partly cloudy - - - - -
27/03:00am 11.4 SW 22 29 1018.4 - 1.2 - Partly cloudy - - - - -
27/02:30am 11.3 SW 15 25 1018.3 - 1.2 - Partly cloudy - - - - -
27/02:27am 11.2 SW 16 26 1018.2 - 1.2 - Partly cloudy - - - - -
27/02:00am 11.4 SW 20 26 1018.3 - 1.2 - Partly cloudy - - - - -
27/01:30am 11.0 SSW 18 27 1018.3 - 1.2 - Partly cloudy - - - - -
27/01:00am 11.1 SW 22 28 1018.2 - 1.2 - Partly cloudy - - - - -
27/12:42am 11.4 SW 20 31 1018.2 - 1.2 - Partly cloudy - - - - -
27/12:30am 10.5 SSW 18 25 1018.4 - 1.2 - Partly cloudy - - - - -
27/12:00am 11.0 SSW 18 27 1018.3 - 1.2 Recent precip. Mostly cloudy - - - - -
 
Date/Time
EST
Temp

°C
Wind Pressure Rain
since 9am
mm
Weather Cloud Vis
km
Sea
Height
m
Swell
Dir
 
Speed
knots
Gust
knots
hPa Trend Height
m
Period
s
Dir
26/11:30pm 11.1 SSW 16 25 1018.3 - 1.2 - Partly cloudy - - - - -
26/11:00pm 10.6 SSW 20 27 1018.3 - 1.0 - Partly cloudy - - - - -
26/10:31pm 11.4 SSW 18 28 1018.2 - 1.0 - Partly cloudy - - - - -
26/10:30pm 11.4 SSW 19 28 1018.3 - 1.0 - Partly cloudy - - - - -
26/10:00pm 11.5 SW 21 31 1018.1 - 1.0 - Partly cloudy - - - - -
26/09:57pm 11.2 SW 20 31 1018.0 - 1.0 - Partly cloudy - - - - -
26/09:30pm 11.2 SW 19 28 1018.0 - 1.0 - Partly cloudy - - - - -
26/09:08pm 11.6 SSW 19 29 1017.9 - 1.0 - Partly cloudy - - - - -
26/09:00pm 11.3 SSW 21 28 1017.8 - 1.0 - Cloudy - - - - -
26/08:30pm 11.7 SW 25 33 1017.5 - 1.0 - Partly cloudy - - - - -
26/08:00pm 11.4 SW 23 35 1017.3 - 1.0 - Partly cloudy - - - - -
26/07:51pm 12.0 SW 23 35 1017.1 - 1.0 - Partly cloudy - - - - -
26/07:30pm 11.7 SW 23 31 1017.1 - 1.0 - Partly cloudy - - - - -
26/07:00pm 12.0 SW 26 36 1016.8 - 1.0 - Partly cloudy - - - - -
26/06:37pm 11.7 SW 26 36 1016.6 - 1.0 - Partly cloudy - - - - -
26/06:30pm 11.3 SW 28 36 1016.6 - 1.0 - Partly cloudy - - - - -
26/06:00pm 10.5 SW 25 37 1016.2 - 1.0 Rain Cloudy - - - - -
26/05:30pm 11.5 SW 25 36 1015.8 - 0.8 - Partly cloudy - - - - -
26/05:00pm 11.9 SW 25 35 1015.4 - 0.8 - Partly cloudy - - - - -
26/04:44pm 12.0 SW 20 39 1015.4 - 0.6 - Partly cloudy - - - - -
26/04:36pm 12.0 SW 19 29 1015.5 - 0.6 - Partly cloudy - - - - -
26/04:30pm 11.8 SW 21 30 1015.6 - 0.6 - Partly cloudy - - - - -
26/04:24pm 11.8 SW 22 30 1015.6 - 0.6 - Partly cloudy - - - - -
26/04:08pm 11.7 SW 22 34 1015.4 - 0.6 - Partly cloudy - - - - -
26/04:00pm 12.7 SW 18 29 1015.4 - 0.4 - Partly cloudy - - - - -
26/03:30pm 12.4 WSW 16 28 1015.3 - 0.4 - Partly cloudy - - - - -
26/03:15pm 12.5 WSW 21 31 1015.2 - 0.4 - Partly cloudy - - - - -
26/03:14pm 12.6 WSW 21 31 1015.2 - 0.4 - Partly cloudy - - - - -
26/03:01pm 12.5 WSW 20 30 1015.2 - 0.4 - Partly cloudy - - - - -
26/03:00pm 12.8 WSW 20 28 1015.2 - 0.4 - Cloudy - - - - -
26/02:38pm 12.7 WSW 18 31 1015.3 - 0.4 - Partly cloudy - - - - -
26/02:30pm 13.0 SW 19 27 1015.4 - 0.4 - Partly cloudy - - - - -
26/02:00pm 13.1 SW 22 33 1015.2 - 0.4 - Partly cloudy - - - - -
26/01:30pm 11.9 SW 22 35 1015.2 - 0.4 - Partly cloudy - - - - -
26/01:27pm 12.7 SW 21 32 1015.3 - 0.4 - Partly cloudy - - - - -
26/01:00pm 12.6 SW 22 28 1015.4 - 0.4 - Partly cloudy - - - - -
26/12:53pm 12.6 SW 21 31 1015.4 - 0.4 - Partly cloudy - - - - -
26/12:30pm 12.6 SW 25 32 1015.5 - 0.4 - Partly cloudy - - - - -
26/12:00pm 11.5 SW 25 35 1015.5 - 0.4 - Mostly cloudy - - - - -
26/11:51am 12.8 SW 21 31 1015.6 - 0.4 - Partly cloudy - - - - -
26/11:30am 12.1 SW 20 29 1015.9 - 0.4 - Partly cloudy - - - - -
26/11:06am 11.5 SW 22 33 1015.9 - 0.4 - Partly cloudy - - - - -
26/11:00am 11.7 SW 19 25 1016.0 - 0.4 - Partly cloudy - - - - -
26/10:30am 11.3 SW 22 36 1015.8 - 0.0 - Partly cloudy - - - - -
26/10:00am 12.2 SW 19 26 1015.9 - 0.0 - Partly cloudy - - - - -
26/09:30am 11.7 SW 21 28 1015.9 - 0.0 - Partly cloudy - - - - -
26/09:00am 11.6 SW 19 26 1016.0 - 0.0 - Partly cloudy - - - - -
26/08:30am 11.0 SW 22 27 1016.0 - 0.0 - Partly cloudy - - - - -
26/08:00am 10.4 SW 25 33 1015.8 - 0.0 - Partly cloudy - - - - -
26/07:30am 11.0 SW 22 33 1015.5 - 0.0 - Partly cloudy - - - - -
26/07:24am 10.7 SSW 21 33 1015.3 - 0.0 - Partly cloudy - - - - -
26/07:00am 11.2 SW 22 30 1015.0 - 0.0 - Partly cloudy - - - - -
26/06:45am 10.8 SW 26 36 1014.9 - 0.0 - Cloudy - - - - -
26/06:30am 11.0 SW 27 35 1014.8 - 0.0 - Cloudy - - - - -
26/06:00am 11.2 SW 24 31 1014.5 - 0.0 - Mostly cloudy - - - - -
26/05:30am 10.9 SW 21 33 1014.4 - 0.0 - Cloudy - - - - -
26/05:22am 10.9 SW 21 33 1014.4 - 0.0 - Cloudy - - - - -
26/05:00am 11.1 SW 24 32 1014.2 - 0.0 - Cloudy - - - - -
26/04:31am 10.9 SSW 21 31 1014.1 - 0.0 - Cloudy - - - - -
26/04:30am 10.9 SSW 21 29 1014.0 - 0.0 - Cloudy - - - - -
26/04:03am 10.8 SSW 21 31 1014.2 - 0.0 - Cloudy - - - - -
26/04:00am 11.0 SSW 22 31 1014.1 - 0.0 - Cloudy - - - - -
26/03:57am 10.9 SSW 21 31 1014.1 - 0.0 - Cloudy - - - - -
26/03:30am 10.7 SSW 20 28 1014.0 - 0.0 - Cloudy - - - - -
26/03:00am 10.5 SSW 21 29 1014.1 - 0.0 - Mostly cloudy - - - - -
26/02:30am 10.5 SSW 21 30 1014.0 - 0.0 - Partly cloudy - - - - -
26/02:00am 11.1 SSW 20 28 1014.0 - 0.0 - Cloudy - - - - -
26/01:30am 11.2 SW 19 26 1014.0 - 0.0 - Cloudy - - - - -
26/01:11am 11.5 SW 21 32 1013.9 - 0.0 - Cloudy - - - - -
26/01:00am 11.3 SSW 19 27 1013.9 - 0.0 - Cloudy - - - - -
26/12:30am 11.5 SSW 23 30 1013.7 - 0.0 - Cloudy - - - - -
26/12:00am 11.1 SSW 20 28 1013.5 - 0.0 - Cloudy - - - - -
 
Date/Time
EST
Temp

°C
Wind Pressure Rain
since 9am
mm
Weather Cloud Vis
km
Sea
Height
m
Swell
Dir
 
Speed
knots
Gust
knots
hPa Trend Height
m
Period
s
Dir
25/11:30pm 10.8 S 15 23 1013.6 - 0.0 - Cloudy - - - - -
25/11:00pm 10.9 S 15 25 1013.7 - 0.0 - Partly cloudy - - - - -
25/10:30pm 10.7 S 15 25 1013.7 - 0.0 - Partly cloudy - - - - -
25/10:25pm 10.7 S 15 25 1013.6 - 0.0 - Partly cloudy - - - - -
25/10:00pm 10.8 S 17 22 1013.6 - 0.0 - Cloudy - - - - -
25/09:30pm 10.8 S 17 23 1013.4 - 0.0 - Partly cloudy - - - - -
25/09:00pm 10.5 S 18 26 1013.3 - 0.0 - Mostly clear - - - - -
25/08:52pm 10.5 S 16 26 1013.2 - 0.0 - Partly cloudy - - - - -
25/08:30pm 10.9 S 19 27 1013.1 - 0.0 - Partly cloudy - - - - -
25/08:12pm 10.9 SSW 19 29 1012.9 - 0.0 - Partly cloudy - - - - -
25/08:00pm 11.2 S 17 23 1012.9 - 0.0 - Partly cloudy - - - - -
25/07:30pm 11.3 S 16 23 1012.7 - 0.0 - Partly cloudy - - - - -
25/07:22pm 11.4 S 18 28 1012.7 - 0.0 - Partly cloudy - - - - -
25/07:00pm 11.7 SSW 20 28 1012.3 - 0.0 - Partly cloudy - - - - -
25/06:30pm 11.5 SSW 20 27 1012.0 - 0.0 - Partly cloudy - - - - -
25/06:00pm 11.7 SSW 23 31 1011.4 - 0.0 - Partly cloudy - - - - -
25/05:30pm 11.7 S 21 27 1011.0 - 0.0 - Partly cloudy - - - - -
25/05:06pm 11.8 SSW 23 33 1010.8 - 0.0 - Partly cloudy - - - - -
25/05:00pm 11.9 SSW 24 33 1010.6 - 0.0 - - - - - - -
25/04:30pm 12.3 SSW 24 33 1010.4 - 0.0 - - - - - - -
25/04:00pm 12.4 SSW 24 32 1010.2 - 0.0 - - - - - - -
25/03:30pm 12.9 SSW 23 32 1010.0 - 0.0 - - - - - - -
25/03:08pm 13.0 SSW 21 31 1009.8 - 0.0 - - - - - - -
25/03:00pm 13.1 SSW 23 29 1009.8 - 0.0 - Mostly clear - - - - -
25/02:30pm 13.2 SSW 23 28 1009.5 - 0.0 - Partly cloudy - - - - -
25/02:00pm 13.3 SSW 20 28 1009.3 - 0.0 - Partly cloudy - - - - -
25/01:30pm 13.4 SSW 20 26 1009.3 - 0.0 - Partly cloudy - - - - -
25/01:00pm 13.8 SSW 20 25 1009.2 - 0.0 - Partly cloudy - - - - -
25/12:30pm 13.5 SSW 18 25 1009.2 - 0.0 - Partly cloudy - - - - -
25/12:00pm 13.8 SSW 17 22 1009.2 - 0.0 - Mostly cloudy - - - - -
25/11:30am 13.9 SSW 15 21 1009.1 - 0.0 - Partly cloudy - - - - -
25/11:00am 13.8 S 13 18 1009.0 - 0.0 - - - - - - -
25/10:30am 13.1 SSW 17 24 1008.8 - 0.0 - Partly cloudy - - - - -
25/10:00am 13.4 SSW 15 19 1008.7 - 0.0 - - - - - - -
25/09:30am 13.1 S 14 20 1008.5 - 0.0 - - - - - - -
25/09:00am 12.8 S 15 21 1008.3 - 2.2 - - - - - - -
25/08:30am 12.4 S 12 16 1008.1 - 2.2 - - - - - - -
25/08:00am 11.9 S 13 18 1007.8 - 2.2 - - - - - - -
25/07:30am 11.3 S 14 19 1007.5 - 2.2 - - - - - - -
25/07:00am 11.3 S 15 21 1007.2 - 2.2 - - - - - - -
25/06:30am 11.4 S 15 20 1007.0 - 2.2 - - - - - - -
25/06:00am 11.7 S 12 17 1006.6 - 2.2 - Cloudy - - - - -
25/05:30am 12.0 S 11 15 1006.4 - 2.2 - - - - - - -
25/05:00am 12.1 S 13 17 1006.2 - 2.2 - - - - - - -
25/04:30am 11.9 S 11 15 1005.9 - 2.2 - - - - - - -
25/04:00am 11.9 S 10 14 1005.7 - 2.2 - Partly cloudy - - - - -
25/03:30am 12.2 S 14 20 1005.5 - 2.2 - Cloudy - - - - -
25/03:00am 12.0 S 11 16 1005.3 - 2.2 - Cloudy - - - - -
25/02:30am 12.3 S 12 16 1005.4 - 2.2 - Partly cloudy - - - - -
25/02:00am 12.5 S 15 21 1005.4 - 2.2 - Cloudy - - - - -
25/01:30am 12.4 S 13 17 1005.4 - 2.2 - Partly cloudy - - - - -
25/01:00am 12.4 S 15 21 1005.2 - 2.2 - - - - - - -
25/12:30am 12.5 S 15 21 1005.2 - 2.2 - - - - - - -
25/12:00am 12.4 S 13 17 1005.1 - 2.2 - Partly cloudy - - - - -
 
Date/Time
EST
Temp

°C
Wind Pressure Rain
since 9am
mm
Weather Cloud Vis
km
Sea
Height
m
Swell
Dir
 
Speed
knots
Gust
knots
hPa Trend Height
m
Period
s
Dir
24/11:30pm 12.6 S 11 16 1005.1 - 2.2 - Partly cloudy - - - - -
24/11:00pm 12.6 S 13 17 1005.0 - 2.2 - Cloudy - - - - -
24/10:30pm 12.7 SSW 13 18 1005.0 - 2.2 - Partly cloudy - - - - -
24/10:00pm 12.8 S 15 23 1004.8 - 2.2 - Partly cloudy - - - - -
24/09:30pm 12.9 S 15 21 1004.6 - 2.2 - Partly cloudy - - - - -
24/09:00pm 13.0 S 16 21 1004.4 - 2.2 - Cloudy - - - - -
24/08:30pm 13.2 SSW 15 21 1004.2 - 2.2 - Cloudy - - - - -
24/08:00pm 13.2 SSW 15 20 1004.0 - 2.2 - Partly cloudy - - - - -
24/07:30pm 13.2 SSW 15 20 1004.0 - 2.2 - Partly cloudy - - - - -
24/07:00pm 13.4 SSW 14 19 1003.7 - 2.2 - Partly cloudy - - - - -
24/06:30pm 13.4 SSW 13 16 1003.3 - 2.2 - Cloudy - - - - -
24/06:00pm 13.4 SSW 9 13 1002.8 - 2.2 - Cloudy - - - - -
24/05:30pm 13.4 SSW 9 12 1002.4 - 2.2 - Partly cloudy - - - - -
24/05:00pm 13.6 SSW 9 11 1002.3 - 2.2 - Partly cloudy - - - - -
24/04:30pm 13.8 SSW 7 10 1002.2 - 2.2 - Partly cloudy - - - - -
24/04:00pm 13.7 SSW 6 9 1002.3 - 2.2 - Partly cloudy - - - - -
24/03:30pm 13.7 S 7 9 1002.4 - 1.8 - Partly cloudy - - - - -
24/03:00pm 13.8 SSW 6 8 1002.6 - 1.6 Rain Cloudy - - - - -
24/02:30pm 13.7 SSW 7 10 1002.3 - 0.8 - Partly cloudy - - - - -
24/02:17pm 14.1 SW 8 10 1002.3 - 0.8 - Partly cloudy - - - - -
24/02:00pm 14.1 SW 6 9 1002.4 - 0.4 - Partly cloudy - - - - -
24/01:30pm 14.2 W 1 4 1002.5 - 0.2 - Partly cloudy - - - - -
24/01:29pm 14.2 W 1 3 1002.5 - 0.2 - Partly cloudy - - - - -
24/01:00pm 14.3 SW 3 5 1002.7 - 0.0 - Partly cloudy - - - - -
24/12:30pm 14.6 SSE 4 5 1002.9 - 0.0 - Cloudy - - - - -
24/12:00pm 14.7 S 3 5 1003.4 - 0.0 - Cloudy - - - - -
24/11:30am 14.3 SSE 6 7 1003.6 - 0.0 - Partly cloudy - - - - -
24/11:00am 13.9 ESE 6 7 1004.0 - 0.0 - Cloudy - - - - -
24/10:30am 13.6 E 7 8 1004.3 - 0.0 - Partly cloudy - - - - -
24/10:00am 13.2 ESE 7 9 1004.4 - 0.0 - Partly cloudy - - - - -
24/09:30am 13.0 SSE 6 8 1004.7 - 0.0 - Partly cloudy - - - - -
24/09:00am 12.6 SE 7 9 1005.0 - 1.6 - Cloudy - - - - -
24/08:30am 12.4 SE 9 11 1005.0 - 1.6 - Partly cloudy - - - - -
24/08:00am 12.1 SSE 5 7 1005.2 - 1.6 - Cloudy - - - - -
24/07:30am 12.0 SE 9 10 1005.1 - 1.6 - Partly cloudy - - - - -

Other Formats:

Comma delimited format used in spreadsheet applications
http://www.bom.gov.au/fwo/IDT60701/IDT60701.95954.axf

JavaScript Object Notation format (JSON) in row-major order
http://www.bom.gov.au/fwo/IDT60701/IDT60701.95954.json